Content
SEND FEEDBACK

Daily
Averages
Monthly
Summary
United States of America

POTTS JUNCTION, GUAM


Home > North America > United States > Guam
Elevation: 360 feet     Latitude: 13 33N     Longitude: 144 50E

WEATHER
 
SELECT A DAY
Number of Records: 208,892;   Date Range: 1/1/95 - 7/22/14
 
SHARE

PRINT THIS DATA

[ ← Previous Day ]
WEATHER ALMANAC - OCTOBER 17, 2013
[ Next Day → ]
[ °C ]   °F
Weather ElementAverageHighLow
Temperature78.5 °F84.2 °F (10:06 am)75.2 °F (1:48 am)
Dewpoint74.2 °F75.9 °F (9:54 am)71.1 °F (10:54 am)
Humidity86.9 %100 % (1:48 am)70 % (10:06 am)
Barometer29.72 in29.79 in (10:06 am)29.65 in (11:54 pm)
Wind Speed14.8 mph25.3 mph (11:54 pm)
Wind Gust40.3 mph (11:54 pm)
Weather ElementAverage
Visibility7.8 mi
Wind DirectionESE (102.5 °)

Weather ElementTotal
Precipitation1.74 in
Cooling Degree Days14.7 (Base 65)
Growing Degree Days29.7 (Base 50)
Averaged from 36 records on October 17, 2013
WEATHER CONDITIONS BREAKOUT
WIND DIRECTION BREAKOUT
WEATHER BY HOUR - OCTOBER 17, 2013
[ °C ]   °F
Local TimeTemperatureDewpointHumidityBarometerVisibilityWind DirectionWind SpeedGust SpeedPrecipitationEventsConditions
1:15 AM78.8 °F75.2 °F89 %29.75 in5.0 miESE (120°)13.8 mph21.9 mph0.00 inRainHeavy Rain
1:34 AM78.8 °F75.2 °F89 %29.75 in9.0 miESE (110°)12.7 mph17.3 mph0.03 inOvercast
1:48 AM75.2 °F75.2 °F100 %29.75 in1.8 miEast (80°)16.1 mph27.6 mph0.18 inRainHeavy Rain
1:49 AM75.2 °F73.4 °F94 %29.75 in3.0 miEast (90°)13.8 mph27.6 mph0.19 inRainHeavy Rain
1:54 AM75.9 °F73.9 °F94 %29.73 in5.0 miEast (90°)8.1 mph21.9 mph0.24 inOvercast
2:09 AM77.0 °F73.4 °F89 %29.75 in10.0 miEast (90°)9.2 mph0.00 inMostly Cloudy
2:54 AM79.0 °F75.0 °F88 %29.73 in10.0 miSE (130°)6.9 mph0.00 inRainLight Rain
3:02 AM78.8 °F75.2 °F89 %29.75 in9.0 miESE (120°)8.1 mph0.01 inRainRain
3:54 AM75.9 °F75.0 °F97 %29.72 in10.0 miSE (130°)8.1 mph0.08 inRainLight Rain
4:54 AM77.0 °F75.0 °F94 %29.73 in10.0 miESE (110°)6.9 mph0.00 inPartly Cloudy
5:54 AM77.0 °F73.0 °F88 %29.74 in10.0 miESE (110°)6.9 mph0.05 inScattered Clouds
6:54 AM79.0 °F73.9 °F84 %29.73 in10.0 miESE (110°)10.4 mphClear
7:54 AM81.0 °F75.0 °F82 %29.74 in10.0 miEast (90°)10.4 mphPartly Cloudy
8:54 AM82.9 °F75.0 °F77 %29.76 in10.0 miESE (110°)11.5 mph19.6 mphPartly Cloudy
9:54 AM82.9 °F75.9 °F79 %29.77 in10.0 miESE (110°)9.2 mph19.6 mphMostly Cloudy
10:06 AM84.2 °F73.4 °F70 %29.79 in10.0 miESE (110°)17.3 mph25.3 mphMostly Cloudy
10:45 AM77.0 °F71.6 °F83 %29.79 in2.5 miEast (100°)10.4 mph21.9 mph0.04 inRainLight Rain
10:54 AM77.0 °F71.1 °F82 %29.77 in3.0 miEast (80°)20.7 mph25.3 mph0.05 inRainRain
11:02 AM75.2 °F71.6 °F89 %29.79 in2.5 miEast (90°)17.3 mph27.6 mph0.03 inRainHeavy Rain
11:13 AM75.2 °F73.4 °F94 %29.77 in6.0 miEast (90°)13.8 mph0.04 inRainLight Rain
11:54 AM82.0 °F75.0 °F79 %29.71 in10.0 miEast (90°)18.4 mph23.0 mph0.04 inPartly Cloudy
12:54 PM82.9 °F75.9 °F79 %29.69 in10.0 miEast (80°)20.7 mph28.8 mphPartly Cloudy
1:54 PM81.0 °F75.0 °F82 %29.69 in10.0 miEast (90°)16.1 mph25.3 mphPartly Cloudy
2:54 PM82.0 °F75.9 °F82 %29.66 in10.0 miEast (80°)19.6 mph28.8 mphScattered Clouds
3:54 PM80.1 °F75.0 °F85 %29.66 in6.0 miESE (110°)18.4 mph26.5 mphRainRain
4:49 PM77.0 °F75.2 °F94 %29.69 in7.0 miESE (110°)16.1 mph28.8 mph0.06 inRainLight Rain
4:54 PM77.0 °F75.0 °F94 %29.67 in7.0 miESE (110°)16.1 mph28.8 mph0.06 inRainLight Rain
5:54 PM79.0 °F73.9 °F84 %29.67 in10.0 miESE (110°)17.3 mph26.5 mph0.00 inPartly Cloudy
6:54 PM78.1 °F73.9 °F87 %29.68 in10.0 miEast (100°)16.1 mph26.5 mph0.00 inRainLight Rain
7:54 PM77.0 °F75.0 °F94 %29.68 in9.0 miESE (110°)23.0 mph31.1 mph0.05 inRainLight Rain
8:54 PM78.1 °F73.9 °F87 %29.71 in9.0 miESE (120°)17.3 mph31.1 mph0.03 inRainLight Rain
9:54 PM75.9 °F73.9 °F94 %29.71 in2.5 miEast (100°)13.8 mph0.14 inRainHeavy Rain
10:12 PM77.0 °F73.4 °F89 %29.71 in5.0 miEast (100°)19.6 mph25.3 mph0.14 inRainRain
10:23 PM78.8 °F73.4 °F83 %29.70 in10.0 miEast (100°)23.0 mph35.7 mph0.14 inOvercast
10:54 PM78.1 °F73.9 °F87 %29.66 in10.0 miEast (100°)21.9 mph31.1 mph0.14 inMostly Cloudy
11:54 PM80.1 °F73.0 °F79 %29.65 in10.0 miESE (110°)25.3 mph40.3 mph0.00 inOvercast
Hourly data recorded from PGUM, located miles away from Potts Junction, Guam







STORIES FROM OUR PARTNERS